Regional Weather Roundup
Issued by NWS

Home | Current Version | Previous Version | Text Only | Print | Product List | Glossary On
Versions: 1 2 3 4 5 6 7 8 9 10 11 12 13 14 15 16 17 18 19 20 21 22 23 24 25 26 27 28 29 30 31 32 33 34 35 36 37 38 39 40 41 42 43 44 45 46 47 48 49 50
000
ASUS45 KABQ 280510
RWRNM
WEATHER ROUNDUP FOR NEW MEXICO
NATIONAL WEATHER SERVICE ALBUQUERQUE NM
1000 PM MST SAT DEC 27 2014

NOTE: "FAIR" MEANS FEW OR NO CLOUDS BELOW 12,000 FEET AGL WITH NO
       SIGNIFICANT WEATHER OR OBSTRUCTIONS TO VISION.

      THIS PRODUCT IS RELEASED AS TWO VERSIONS.  ONE VERSION NEAR
      THE TOP OF THE HOUR CONTAINING PRELIMINARY DATA FROM ALBUQUERQUE
      AND OTHER STATIONS.  A FINAL VERSION WITH ADDITIONAL DATA IS
      ISSUED ABOUT 10 MINUTES AFTER THE HOUR.

NMZ501-503-504-510>518-280600-
NORTHWEST PLATEAU/NORTHCENTRAL MOUNTAINS

CITY           SKY/WX    TMP DP  RH WIND       PRES   REMARKS
FARMINGTON     CLEAR      5   1  83 N6        30.30S WCI  -6
LOS ALAMOS     PTCLDY    18   9  66 CALM      30.21R
SANTA FE       PTCLDY    19   9  65 N13       30.21S WCI   6
TAOS           PTCLDY     0  -6  78 N8        30.22S WCI -15
ANGEL FIRE     FAIR      12   6  75 CALM      30.14S

$$
NMZ402-403-502-505>509-280600-
WESTCENTRAL MOUNTAINS/SOUTHWEST MOUNTAINS

CITY           SKY/WX    TMP DP  RH WIND       PRES   REMARKS
GALLUP         CLEAR      3   0  87 CALM      30.30R
GRANTS         CLEAR     10   5  80 W3        30.30R
SILVER CITY    CLEAR     19  14  79 N8        30.28R WCI   9

$$
NMZ407-409-411-412-280600-
SOUTHERN DESERTS

CITY           SKY/WX    TMP DP  RH WIND       PRES   REMARKS
LORDSBURG      FAIR      28  23  80 CALM      30.29R
DEMING         CLEAR     27  22  81 CALM      30.29R
LAS CRUCES     CLEAR     32  26  78 W13       30.28R WCI  22
HOLLOMAN AFB   CLEAR     26  18  72 NE8       30.26R WCI  17
ALAMOGORDO     CLEAR     28  16  59 NE8       30.28R WCI  20
T OR C         CLEAR     28   9  44 NW8       30.27R WCI  20

$$
NMZ519>523-280600-
CENTRAL VALLEYS/CENTRAL HIGHLANDS

CITY           SKY/WX    TMP DP  RH WIND       PRES   REMARKS
ALBUQUERQUE    CLEAR     26   8  46 N10       30.29R WCI  16
DOUBLE EAGLE   CLEAR     20   6  55 NW7       30.28R WCI  11
MORIARTY ARPT  FAIR      20   6  55 NW12      30.22S WCI   8
CLINES CORNERS CLEAR     15   4  61 NW22      30.12S WCI  -3
BELEN          FAIR      20  10  64 N3        30.29S
SOCORRO        FAIR      25  13  58 N7        30.29R WCI  18

$$
NMZ524>526-539-540-280600-
SOUTHCENTRAL MOUNTAINS

CITY           SKY/WX    TMP DP  RH WIND       PRES   REMARKS
RUIDOSO        CLEAR     23   9  54 NW6       30.22S WCI  16

$$
NMZ527>531-280600-
NORTHEAST HIGHLANDS/NORTHEAST PLAINS

CITY           SKY/WX    TMP DP  RH WIND       PRES   REMARKS
LAS VEGAS      PTCLDY    14   9  80 N6        30.09F WCI   5
RATON          PTCLDY     4   0  83 NE7       30.09F WCI  -8
CLAYTON        CLEAR     17  13  84 SW9       30.14S WCI   6

$$
NMZ532>537-280600-
EASTCENTRAL PLAINS

CITY           SKY/WX    TMP DP  RH WIND       PRES   REMARKS
TUCUMCARI      CLEAR     16  13  88 CALM      30.19F
CANNON AFB     CLEAR     20  13  75 SW7       30.23S WCI  11
CLOVIS AIRPORT CLEAR     19  12  73 SW7       30.23S WCI  10

$$
NMZ028-029-538-280600-
SOUTHEAST PLAINS

CITY           SKY/WX    TMP DP  RH WIND       PRES   REMARKS
ROSWELL        CLEAR     27  18  69 W8        30.27R WCI  19
ARTESIA        CLEAR     27  25  93 W8        30.28S WCI  18
CARLSBAD       CLEAR     30  27  88 S7        30.28S WCI  23
HOBBS          CLOUDY    28  28 100 W5        30.28R WCI  23


$$


USA.gov is the U.S. government's official web portal to all federal, state and local government web resources and services.